AO-07 1 07530U 74089B 23193.80466108 -.00000028 00000-0 11358-3 0 9996 2 07530 101.9476 180.6552 0012423 16.5699 54.3468 12.53665280226626 UO-11 1 14781U 84021B 23193.73094930 .00001656 00000-0 20014-3 0 9997 2 14781 97.6584 169.6745 0009662 113.5261 246.6971 14.84988793118930 AO-16 1 20439U 90005D 23194.72390941 .00000208 00000-0 92766-4 0 9990 2 20439 98.8837 185.6357 0011711 122.6712 51.2425 14.33123719748956 LO-19 1 20442U 90005G 23194.69879419 .00000202 00000-0 90278-4 0 9992 2 20442 98.8449 171.7825 0012873 99.9380 260.3257 14.33277567749208 HUBBLE 1 20580U 90037B 23194.19092035 .00004258 00000-0 22176-3 0 9992 2 20580 28.4697 94.9516 0002381 303.5588 189.5250 15.13455405625672 MET-2/21 1 22782U 93055A 23194.72471765 .00000085 00000-0 63632-4 0 9998 2 22782 82.5482 63.7016 0021757 332.8081 89.2255 13.83890637508396 AO-27 1 22825U 93061C 23194.65073999 .00000131 00000-0 68184-4 0 9991 2 22825 98.8392 237.9654 0008300 358.8072 1.3089 14.30319882554341 IO-26 1 22826U 93061D 23194.64747800 .00000152 00000-0 75615-4 0 9990 2 22826 98.8338 237.8248 0008541 343.7632 16.3275 14.30682355554590 FO-29 1 24278U 96046B 23192.73838520 .00000033 00000-0 70500-4 0 9993 2 24278 98.5294 167.9478 0350139 353.4098 6.2500 13.53149042328500 NOAA-15 1 25338U 98030A 23194.74339325 .00000249 00000-0 12154-3 0 9997 2 25338 98.6043 223.3444 0009392 232.0569 127.9763 14.26351072309047 GO-32 1 25397U 98043D 23193.79868056 .00000097 00000-0 62274-4 0 9998 2 25397 98.8699 151.4776 0002361 73.7223 286.4215 14.23886817299190 ISS 1 25544U 98067A 23194.81749766 .00010770 00000-0 19835-3 0 9991 2 25544 51.6416 196.5612 0000363 52.4414 2.7291 15.49719067405927 NO-44 1 26931U 01043C 23194.20170668 .00000212 00000-0 11192-3 0 9990 2 26931 67.0511 129.6537 0008047 268.3789 91.6391 14.30941547137466 SO-50 1 27607U 02058C 23194.70062979 .00001064 00000-0 16386-3 0 9994 2 27607 64.5530 183.6393 0066483 219.3302 140.2963 14.77390603106357 CO-55 1 27844U 03031E 23194.55070922 .00000394 00000-0 19498-3 0 9991 2 27844 98.6772 201.4206 0010835 53.9271 306.2909 14.22812359 39519 CO-57 1 27848U 03031J 23194.50056739 .00000341 00000-0 17277-3 0 9995 2 27848 98.6809 201.7771 0010877 67.6679 292.5651 14.22319040 39299 RS-22 1 27939U 03042A 23194.71444326 .00001242 00000-0 22297-3 0 9993 2 27939 98.2464 341.8789 0013471 56.6643 72.8733 14.68471366 58437 NOAA-18 1 28654U 05018A 23194.69182934 .00000216 00000-0 13992-3 0 9996 2 28654 98.9091 268.9536 0013267 307.4076 52.5887 14.12968333935314 CO-58 1 28895U 05043F 23194.35417546 .00001529 00000-0 28910-3 0 9998 2 28895 98.1568 326.2192 0015919 354.5607 5.5421 14.65757933944870 CO-65 1 32785U 08021C 23193.74238094 .00003509 00000-0 34690-3 0 9993 2 32785 97.7066 159.1542 0012862 26.7626 333.4254 14.92481138824703 AAUSAT2 1 32788U 08021F 23194.49388903 .00010155 00000-0 73054-3 0 9996 2 32788 97.5599 173.3349 0006040 261.8865 98.1676 15.04406029827162 DO-64 1 32789U 08021G 23194.64063840 .00061944 00000-0 15450-2 0 9991 2 32789 97.3000 216.0060 0005813 63.4323 296.7518 15.39968119831555 CO-66 1 32791U 08021J 23194.47647632 .00006465 00000-0 56568-3 0 9995 2 32791 97.6569 165.1665 0010560 334.4499 25.6200 14.97025107825673 RS-30 1 32953U 08025A 23194.68297573 .00000020 00000-0 71271-4 0 9997 2 32953 82.5042 300.6152 0020663 126.1235 234.1761 12.43126606686947 PRISM 1 33493U 09002B 23194.61820898 .00009015 00000-0 60444-3 0 9990 2 33493 98.2439 210.9976 0014341 322.1676 37.8541 15.07040124787737 NOAA-19 1 33591U 09005A 23194.73968428 .00000195 00000-0 12961-3 0 9998 2 33591 99.0979 241.0889 0014221 164.3663 195.7950 14.12785318743692 SRMSAT 1 37841U 11058D 23193.82643189 .00000458 00000-0 10632-3 0 9999 2 37841 19.9732 55.0034 0011763 313.5098 132.8570 14.10912886606659 HRBE 1 37855U 11061F 23194.66937214 .00027910 00000-0 83680-3 0 9991 2 37855 101.7054 171.3064 0113889 319.2351 40.0392 15.28246998641074 RS-40 1 38735U 12041C 23193.75787049 .00000030 00000-0 14402-3 0 9996 2 38735 82.4762 22.1432 0016571 239.7131 120.2309 12.42594754496983 ZACUBE-1 1 39417U 13066B 23194.44170164 .00003015 00000-0 34923-3 0 9999 2 39417 97.6860 155.1933 0054040 199.4105 160.5054 14.85160511521091 Delfi-N3xt 1 39428U 13066N 23193.78971451 .00004917 00000-0 70330-3 0 9999 2 39428 97.8323 117.7188 0111981 106.7963 254.5565 14.72809035516087 GOMX-1 1 39430U 13066Q 23194.67555973 .00001414 00000-0 25273-3 0 9993 2 39430 97.7772 84.2729 0143715 249.4384 109.1350 14.61949214513400 LO-74 1 39440U 13066AA 23194.61218299 .00003308 00000-0 42838-3 0 9995 2 39440 97.7726 142.5054 0073583 302.1106 57.2978 14.79630402519267 AO-73 1 39444U 13066AE 23194.44152168 .00003947 00000-0 43677-3 0 9993 2 39444 97.6720 157.7622 0052706 184.2419 175.8358 14.86897340520134 SPROUT 1 39770U 14029E 23194.59415902 .00018479 00000-0 13655-2 0 9997 2 39770 97.9875 322.6403 0006673 212.3004 147.7812 15.03257539496129 DTUSAT-2 1 40030U 14033W 23193.74596259 .00003684 00000-0 35707-3 0 9999 2 40030 97.9676 134.6155 0010035 198.4680 161.6176 14.93297646492322 EO-80 1 40032U 14033Y 23194.45871110 .00004730 00000-0 45663-3 0 9997 2 40032 97.9676 135.3554 0010023 195.7298 164.3611 14.93310463492414 HODOYOSHI-1 1 40299U 14070B 23194.72177921 .00010715 00000-0 32462-3 0 9995 2 40299 97.1931 256.7035 0010881 174.2855 185.8515 15.34268535482878 FIREBIRD FU3 1 40377U 15003B 23194.46972713 .00414317 66119-4 14268-2 0 9998 2 40377 99.0698 161.8466 0032774 116.9688 243.4932 15.88630436468805 FIREBIRD FU4 1 40378U 15003C 23194.47966518 .00402029 61932-4 14199-2 0 9994 2 40378 99.0709 162.1760 0033172 116.4037 244.0641 15.88108125468816 GRIFEX 1 40379U 15003D 23194.77743613 .00030170 00000-0 61794-3 0 9990 2 40379 99.0769 137.9897 0078747 177.6378 182.5252 15.42694069467481 XW-2C 1 40906U 15049H 23194.70004103 .00012308 00000-0 46482-3 0 9993 2 40906 97.4927 201.9336 0013392 74.0956 286.1757 15.27068262432444 XW-2D 1 40907U 15049J 23194.74936345 .00014555 00000-0 51551-3 0 9999 2 40907 97.4908 202.5901 0012315 68.8158 291.4397 15.29154739432545 LILACSAT-2 1 40908U 15049K 23194.75567598 .00006366 00000-0 29760-3 0 9999 2 40908 97.5244 197.7407 0015825 97.6186 262.6846 15.20027174431839 XW-2E 1 40909U 15049L 23194.71055622 .00030642 00000-0 76628-3 0 9995 2 40909 97.4512 209.0763 0008748 44.3620 315.8326 15.40031908433228 XW-2F 1 40910U 15049M 23194.71955672 .00029761 00000-0 76080-3 0 9993 2 40910 97.4604 208.3299 0009610 45.5076 314.6953 15.39357330432966 XW-2B 1 40911U 15049N 23194.68391891 .00014288 00000-0 50981-3 0 9997 2 40911 97.4887 202.9446 0012333 70.3565 289.9005 15.28916494432411 DCBB 1 40912U 15049P 23194.69518305 .00038571 00000-0 78700-3 0 9990 2 40912 97.4152 213.0385 0006411 4.4708 355.6597 15.46082305433704 IO-86 1 40931U 15052B 23194.01630130 .00001243 00000-0 82372-4 0 9999 2 40931 5.9991 262.1374 0013536 299.7524 60.1257 14.77270477421175 ATHENOXAT-1 1 41168U 15077C 23194.73549472 .00297885 00000-0 21201-2 0 9997 2 41168 14.9874 10.9432 0006473 49.0655 311.0234 15.71581237420485 ChubuSat-2 1 41338U 16012B 23194.68691083 .00004116 00000-0 28285-3 0 9999 2 41338 31.0040 48.3626 0012005 81.2694 278.9302 15.04190648406375 ChubuSat-3 1 41339U 16012C 23194.75071641 .00003792 00000-0 26127-3 0 9992 2 41339 31.0103 45.1199 0011918 89.3281 270.8721 15.04030611406378 Horyu-4 1 41340U 16012D 23194.73125769 .00007546 00000-0 46878-3 0 9999 2 41340 31.0053 12.5476 0011055 147.4039 212.7282 15.08264573406736 e-st@r-II 1 41459U 16025D 23194.68740141 .00026446 00000-0 73256-3 0 9995 2 41459 98.1841 38.7057 0102922 7.5942 352.6826 15.31693654396956 AAUSAT4 1 41460U 16025E 23194.55070584 .00140049 00000-0 13794-2 0 9996 2 41460 98.1545 52.4854 0045097 314.9241 44.8360 15.64207662397885 LO-87 1 41557U 16033B 23194.74504447 .00073211 00000-0 79239-3 0 9996 2 41557 97.3890 303.7685 0004127 41.6583 318.4989 15.63337486397774 NuSat2 1 41558U 16033C 23194.72052939 .00092881 00000-0 83312-3 0 9990 2 41558 97.4169 312.1311 0003228 19.5107 340.6277 15.68001119398125 Lapan A3 1 41603U 16040E 23194.74223432 .00002526 00000-0 11143-3 0 9999 2 41603 97.1648 219.0795 0011528 215.7236 144.3231 15.22598539391535 Pratham 1 41783U 16059A 23194.67843238 .00000840 00000-0 16774-3 0 9994 2 41783 97.8672 224.6119 0033389 19.2474 340.9982 14.64011444362850 TY-1 1 41844U 16066D 23194.76246277 .00062297 00000-0 86019-3 0 9993 2 41844 97.3647 214.8716 0004003 324.7928 35.3063 15.56967574371815 CAS-2T 1 41847U 16066G 23194.64922850 .00002283 00000-0 34418-3 0 9996 2 41847 98.5032 263.0744 0360547 117.9968 245.8192 14.39805313350618 EO-88 1 42017U 17008BX 23194.67830789 .01170226 82418-3 14404-2 0 9997 2 42017 97.2021 267.7026 0012155 250.4925 109.5046 16.07972040357688 CAS-4B 1 42759U 17034B 23194.71212452 .00008595 00000-0 42694-3 0 9990 2 42759 43.0165 328.1828 0012218 273.1653 86.7797 15.17865505335661 CAS-4A 1 42761U 17034D 23194.72816374 .00007482 00000-0 37311-3 0 9991 2 42761 43.0158 326.6218 0013039 274.7933 85.1426 15.17865448335671 NIUSat 1 42766U 17036B 23194.63990739 .00026111 00000-0 63773-3 0 9997 2 42766 97.1549 225.3718 0009089 21.0914 339.0706 15.40775880336682 Aalto 1 1 42775U 17036L 23194.65032030 .00017506 00000-0 49300-3 0 9998 2 42775 97.1505 223.9430 0009539 23.1750 336.9923 15.36464485336587 URSA MAIOR 1 42776U 17036M 23194.61350038 .00020147 00000-0 52980-3 0 9999 2 42776 97.1515 225.3267 0008766 20.4728 339.6868 15.38570119336659 Max Valier Sat 1 42778U 17036P 23194.62076551 .00022367 00000-0 55896-3 0 9992 2 42778 97.1529 228.8592 0007472 24.4903 335.6697 15.40122339336798 Pegasus 1 42784U 17036V 23194.64515672 .00042876 00000-0 77620-3 0 9999 2 42784 97.1450 231.7739 0005078 16.5825 343.5592 15.49525002337076 SUCHAI 1 1 42788U 17036Z 23194.66454226 .00091597 00000-0 10405-2 0 9993 2 42788 97.1411 236.0026 0001916 9.9236 350.2060 15.62031998337428 SKCUBE 1 42789U 17036AA 23194.65139392 .00060719 00000-0 89900-3 0 9996 2 42789 97.1415 234.1524 0003659 10.4299 349.7031 15.55077067337225 VENTA 1 1 42791U 17036AC 23194.65850456 .00042041 00000-0 75478-3 0 9993 2 42791 97.1470 232.9919 0004296 15.5512 344.5871 15.49770080337138 Robusta 1B 1 42792U 17036AD 23194.61170475 .00078044 00000-0 98054-3 0 9993 2 42792 97.1399 235.5110 0001770 9.1613 350.9676 15.59439048337328 D-SAT 1 42794U 17036AF 23193.75676590 .00002311 00000-0 18571-3 0 9998 2 42794 97.4649 184.6324 0115143 215.1712 144.1872 14.95906134329787 TechnoSat 1 42829U 17042E 23194.51653193 .00002147 00000-0 20724-3 0 9993 2 42829 97.3886 30.3858 0014514 132.5195 227.7254 14.93759117326429 AO-91 1 43017U 17073E 23194.64315344 .00007382 00000-0 51371-3 0 9992 2 43017 97.6279 77.9377 0231465 342.3542 16.9728 14.86549263305112 PICSAT 1 43132U 18004X 23194.20402949 .00087699 00000-0 95585-3 0 9999 2 43132 97.3259 278.2980 0000917 5.3287 354.7981 15.63114825306606 AO-92 1 43137U 18004AC 23194.65392050 .00033361 00000-0 63929-3 0 9998 2 43137 97.3279 274.1670 0005159 58.2626 301.9127 15.47943720306399 TianYi 2 1 43155U 18008A 23194.74133643 .00017991 00000-0 68884-3 0 9999 2 43155 97.2970 246.6376 0012564 206.5834 153.4762 15.26530721302706 Zhou Enlai 1 43156U 18008B 23194.74024083 .00019573 00000-0 73416-3 0 9992 2 43156 97.3019 246.7932 0010230 205.6914 154.3818 15.27220590302633 TianYi 6 1 43158U 18008D 23194.66927079 .00014066 00000-0 58617-3 0 9990 2 43158 97.3027 243.5350 0010103 210.0123 150.0537 15.23773477302458 S-Net D 1 43186U 18014G 23194.72307035 .00003558 00000-0 28522-3 0 9995 2 43186 97.6247 98.0248 0017502 81.6565 278.6643 15.00629993297532 S-Net B 1 43187U 18014H 23194.72431119 .00003562 00000-0 28556-3 0 9999 2 43187 97.6242 97.9522 0017940 79.1746 281.1496 15.00623678297539 S-Net A 1 43188U 18014J 23194.72438414 .00003560 00000-0 28541-3 0 9997 2 43188 97.6249 98.0419 0017913 79.3383 280.9857 15.00626282297535 S-Net C 1 43189U 18014K 23194.72681419 .00003627 00000-0 29066-3 0 9990 2 43189 97.6246 97.9303 0018667 74.2957 286.0325 15.00617079296081 Shaonian Xing 1 43199U 18015H 23194.66612095 .00404537 65042-4 12067-2 0 9997 2 43199 97.5363 357.0699 0003438 269.4748 90.6131 15.92387865304010 CubeBel-1 1 43666U 18083E 23194.73263616 .00030504 00000-0 76945-3 0 9994 2 43666 97.3786 226.5160 0008980 41.2955 318.8968 15.39765814261281 Changshagaoxin 1 43669U 18083H 23194.76524999 .00027325 00000-0 78125-3 0 9993 2 43669 97.3778 221.0291 0007400 46.0181 314.1671 15.35924617261026 Ten-Koh 1 43677U 18084G 23194.35149456 .00002736 00000-0 26719-3 0 9990 2 43677 98.0164 334.7257 0016302 65.0545 295.2366 14.93172411255968 PO-101 1 43678U 18084H 23194.72037344 .00001228 00000-0 12227-3 0 9998 2 43678 98.0261 339.2298 0010830 76.3581 283.8843 14.93516956256226 QO-100 1 43700U 18090A 23194.74329478 .00000144 00000-0 00000+0 0 9993 2 43700 0.0233 33.9693 0001749 121.7635 69.0087 1.00271551 17193 Reaktor Hello World 1 43743U 18096AA 23194.48860971 .00073581 00000-0 83607-3 0 9998 2 43743 97.3167 282.3135 0007917 92.8517 267.3647 15.62054856258277 MinXSS-2 1 43758U 18099A 23193.71041451 .00006515 00000-0 50020-3 0 9992 2 43758 97.6055 257.3010 0019123 43.4851 316.7878 15.01955252251575 AO-95 1 43770U 18099N 23194.70914765 .00005243 00000-0 42409-3 0 9992 2 43770 97.5687 255.5251 0014914 58.8995 301.3690 15.00102604251585 RANGE-B 1 43772U 18099Q 23194.68245028 .00005884 00000-0 45435-3 0 9993 2 43772 97.5702 258.3560 0006492 13.4656 346.6741 15.01903446251642 RANGE-A 1 43773U 18099R 23194.64340124 .00003996 00000-0 33673-3 0 9996 2 43773 97.5623 253.4669 0013145 38.5570 321.6590 14.98677445251521 MOVE-II 1 43780U 18099Y 23194.64972153 .00009192 00000-0 66412-3 0 9998 2 43780 97.5714 258.1213 0009942 70.2172 290.0125 15.04248590251715 SNUSat 2 1 43782U 18099AA 23194.60896544 .00003697 00000-0 30138-3 0 9995 2 43782 97.5747 255.9559 0013247 22.2917 337.8880 15.00008067251591 SnugLite 1 43784U 18099AC 23194.68219809 .00004360 00000-0 34960-3 0 9993 2 43784 97.5651 255.7075 0007764 41.5630 318.6183 15.00588690251645 ITASat 1 1 43786U 18099AE 23194.65068001 .00004748 00000-0 38816-3 0 9992 2 43786 97.5737 256.5021 0015010 47.2226 313.0257 14.99741078251615 EAGLET 1 1 43790U 18099AJ 23194.69973874 .00003180 00000-0 26501-3 0 9991 2 43790 97.5726 257.0055 0012062 39.0705 321.1387 14.99271116251352 ESEO 1 43792U 18099AL 23194.68437045 .00001364 00000-0 12090-3 0 9997 2 43792 97.5681 255.3836 0013559 40.0921 320.1300 14.97751804251355 CSIM 1 43793U 18099AM 23193.73976071 .00010094 00000-0 71959-3 0 9999 2 43793 97.5747 258.5866 0016209 45.1051 315.1488 15.04660551251428 Astrocast 0.1 1 43798U 18099AS 23194.70666740 .00008028 00000-0 59841-3 0 9991 2 43798 97.5859 258.8487 0012154 25.5603 334.6221 15.03093439251750 JO-97 1 43803U 18099AX 23194.64736266 .00005686 00000-0 44701-3 0 9998 2 43803 97.5732 256.5448 0015141 13.4338 346.7287 15.01163307251665 Suomi 100 1 43804U 18099AY 23194.65024026 .00005602 00000-0 44384-3 0 9999 2 43804 97.5700 256.3257 0020405 26.4367 333.7894 15.00796363251665 Al Farabi 2 1 43805U 18099AZ 23194.69456865 .00006510 00000-0 49221-3 0 9998 2 43805 97.5615 257.4485 0012934 24.8014 335.3830 15.02616313251739 CHOMPTT 1 43855U 18104G 23193.62734686 .00026533 00000-0 62831-3 0 9991 2 43855 85.0296 148.8349 0010097 203.6078 156.4713 15.41583240254491 ISAT 1 43879U 18111D 23193.73424869 .00006979 00000-0 52509-3 0 9999 2 43879 97.6444 97.8357 0016992 79.4818 280.8320 15.02735434246155 UWE-4 1 43880U 18111E 23194.66536257 .00006132 00000-0 46379-3 0 9998 2 43880 97.6351 99.4381 0021310 84.8292 275.5364 15.02515128246341 Sparrow 1 43881U 18111F 23194.73368433 .00006366 00000-0 47514-3 0 9997 2 43881 97.6496 100.2002 0013691 112.3884 247.8794 15.03113084246378 Lume 1 1 43908U 18111AJ 23194.65871351 .00034610 00000-0 65320-3 0 9994 2 43908 97.1363 77.5589 0014759 102.5697 257.7205 15.48266889253489 FO-99 1 43937U 19003F 23194.62189327 .00060717 00000-0 86532-3 0 9994 2 43937 97.0833 221.5586 0013420 166.7345 193.4266 15.56020435250154 AstroCast 0.2 1 44083U 19018F 23194.73341043 .00051744 00000-0 82674-3 0 9993 2 44083 97.2647 254.7949 0006423 148.0389 212.1256 15.52996777238532 AISTechSat 3 1 44103U 19018AB 23194.69698614 .00026535 00000-0 61263-3 0 9991 2 44103 97.2516 252.9917 0009772 168.1413 192.0067 15.42465150238593 AISat 1 1 44104U 19018AC 23194.26409923 .00022088 00000-0 41212-3 0 9999 2 44104 97.3742 286.1015 0040427 161.7527 198.5185 15.47881234239752 Prox-1 1 44339U 19036A 23193.46115538 .00005636 00000-0 11128-2 0 9998 2 44339 23.9999 243.8252 0009660 179.5960 180.4541 14.59720311215385 Move-IIb 1 44398U 19038N 23194.70427949 .00053414 00000-0 11905-2 0 9995 2 44398 97.6585 178.8357 0014168 178.0549 182.0755 15.43313615222751 SONATE 1 44400U 19038Q 23193.74767913 .00009807 00000-0 43310-3 0 9993 2 44400 97.6844 171.9303 0019192 217.8986 142.0899 15.21788976222125 BeeSat 9 1 44412U 19038AC 23194.49207947 .00021397 00000-0 71019-3 0 9990 2 44412 97.6738 176.0193 0014372 201.5769 158.4867 15.31158698222182 JAISAT-1 1 44419U 19038F 23194.69799367 .00021812 00000-0 71722-3 0 9994 2 44419 97.6733 177.3266 0013834 196.4082 163.6712 15.31464064222590 Taurus 1 1 44530U 19059C 23194.70782005 .00003837 00000-0 99491-3 0 9994 2 44530 98.5570 302.9236 0012409 17.8124 342.3502 14.50315999202487 Duchifat 3 1 44854U 19089C 23194.65276172 .00007784 00000-0 51885-3 0 9993 2 44854 36.9622 293.0698 0008469 176.7101 183.3700 15.06665306196828 OPS-SAT 1 44878U 19092F 23194.52542842 .00026754 00000-0 76783-3 0 9991 2 44878 97.4745 23.6362 0009113 48.1454 312.0566 15.35796670197831 TO-108 1 44881U 19093C 23194.68596681 .00000954 00000-0 12496-3 0 9998 2 44881 97.8613 272.6868 0014516 357.4950 2.6188 14.82596254192722 FloripaSat 1 1 44885U 19093G 23194.67796520 .00003246 00000-0 37699-3 0 9994 2 44885 97.8683 275.5488 0013212 359.3819 0.7377 14.86010245192881 RS-44 1 44909U 19096E 23193.63210509 .00000013 00000-0 -16198-5 0 9990 2 44909 82.5233 331.0361 0218391 127.3500 234.7716 12.79722048165464 BY70-2 1 45857U 20042B 23194.71940961 .00017550 00000-0 17587-2 0 9991 2 45857 97.9261 274.7257 0007374 269.6214 90.4159 14.91404247163497 UPMSat 2 1 46276U 20061E 23194.68366382 .00008049 00000-0 33616-3 0 9998 2 46276 97.3457 261.7178 0001141 154.8489 205.2804 15.23893572158325 AmicalSat 1 46287U 20061R 23194.66580040 .00012011 00000-0 54905-3 0 9995 2 46287 97.3993 260.6852 0002061 43.4413 316.6985 15.20699857157739 SALSAT 1 46495U 20068K 23194.39979636 .00005114 00000-0 33594-3 0 9993 2 46495 97.7705 142.6852 0016428 36.6438 323.5910 15.07969075153027 CAPE 3 1 47309U 21002A 23194.69575490 .00034841 00000-0 78784-3 0 9999 2 47309 60.6771 317.6195 0008065 246.0413 113.9839 15.42940259138370 AO-109 1 47311U 21002C 23194.67408834 .00026920 00000-0 66649-3 0 9993 2 47311 60.6812 316.6128 0006509 226.2318 133.8240 15.40333006138370 ExoCube 2 1 47319U 21002L 23194.68784688 .00026487 00000-0 67420-3 0 9992 2 47319 60.6794 318.8362 0007286 232.9078 127.1352 15.39490491138292 UVSQ-SAT 1 47438U 21006AB 23194.67461944 .00013778 00000-0 55101-3 0 9996 2 47438 97.3831 251.4116 0008733 358.4791 1.6419 15.25177629136687 YUSAT 1 1 47439U 21006AC 23194.58943049 .00018332 00000-0 67417-3 0 9992 2 47439 97.3838 252.1902 0007836 355.7742 4.3430 15.27908547136726 SOMP 2b 1 47445U 21006AJ 23194.67635540 .00012808 00000-0 52441-3 0 9996 2 47445 97.3799 250.6238 0008821 4.3217 355.8095 15.24403022136651 IDEASSat 1 47458U 21006AX 23194.66856487 .00012093 00000-0 50503-3 0 9997 2 47458 97.3894 251.4047 0008154 4.4960 355.6349 15.23755081136635 CubeSX-Sirius-HSE 1 47951U 21022V 23194.71721423 .00008686 00000-0 48167-3 0 9996 2 47951 97.4952 91.6459 0016836 239.8655 120.0908 15.13894200127047 CubeSX-HSE 1 47952U 21022W 23194.75540144 .00007864 00000-0 43571-3 0 9991 2 47952 97.4948 91.7329 0016751 238.9742 120.9845 15.13957961127057 KSU-Cubesat 1 47954U 21022Y 23194.65973479 .00010259 00000-0 55289-3 0 9994 2 47954 97.4957 92.0522 0016125 237.5651 122.4022 15.14872472126784 GRBAlpha 1 47959U 21022AD 23194.74059602 .00009098 00000-0 50228-3 0 9999 2 47959 97.4951 91.8056 0016672 239.5778 120.3807 15.14042015125870 Orbicraft-Zorkiy 1 47960U 21022AE 23194.75159152 .00009019 00000-0 48797-3 0 9994 2 47960 97.4982 92.2817 0016214 238.2188 121.7465 15.14770766126584 STECCO 1 47962U 21022AG 23194.71580130 .00016874 00000-0 75953-3 0 9997 2 47962 97.4952 94.8583 0010962 219.8079 140.2354 15.21104145126076 DO-111 1 47963U 21022AH 23194.72168463 .00903748 32685-3 34802-2 0 9999 2 47963 97.4836 105.3450 0015086 157.8251 202.3675 15.87170737126768 MO-110 1 47964U 21022AJ 23194.68496299 .00018370 00000-0 80541-3 0 9999 2 47964 97.4964 95.4642 0013082 215.9340 144.1018 15.21962831126106 FEES 1 48082U 21022AL 23194.71614019 .00032829 00000-0 11578-2 0 9995 2 48082 97.4952 97.0170 0009140 197.9603 162.1315 15.29153130125910 TUBIN 1 48900U 21059X 23194.69146777 .00007905 00000-0 37134-3 0 9996 2 48900 97.6025 328.4708 0009165 181.3942 178.7269 15.19854478113202 IT-SPINS 1 49017U 21013G 23194.57392748 .00032951 00000-0 71186-3 0 9998 2 49017 51.5922 309.1673 0005914 50.0575 310.0929 15.44192871113783 LEDSAT 1 49069U 21073D 23194.68264338 .00008562 00000-0 46363-3 0 9996 2 49069 97.4817 265.1139 0024126 32.3478 327.9228 15.14615553104919 CUTE 1 49263U 21088D 23193.75378869 .00008822 00000-0 55864-3 0 9995 2 49263 97.5427 259.1163 0018466 170.3384 189.8204 15.09060357 98148 TeikyoSat 4 1 49396U 21102B 23194.70748470 .00001695 00000-0 13243-3 0 9990 2 49396 97.5081 245.8768 0014822 354.3056 5.7999 15.02329450 91758 Z-Sat 1 49399U 21102E 23194.68107915 .00003267 00000-0 23330-3 0 9998 2 49399 97.4839 246.9649 0021105 343.6718 16.3827 15.05022981 91872 KOSEN 1 1 49402U 21102H 23194.59098034 .00003499 00000-0 23788-3 0 9998 2 49402 97.4760 247.4343 0019673 331.7901 28.2259 15.06831120 91938 HO-113 1 50466U 21131B 23194.73234757 .00000546 00000-0 19127-3 0 9994 2 50466 98.5520 276.1955 0005318 69.2959 290.8798 14.38957937 81170 Tevel-3 1 50988U 22002E 23194.74302231 .00019238 00000-0 74689-3 0 9997 2 50988 97.4325 261.5427 0008981 137.4661 222.7274 15.26093184 82817 Tevel-8 1 50989U 22002F 23194.69736971 .00018679 00000-0 72685-3 0 9996 2 50989 97.4342 261.5595 0009030 136.8547 223.3400 15.26022968 82804 Tevel-5 1 50998U 22002Q 23194.73851715 .00020269 00000-0 76610-3 0 9995 2 50998 97.4321 261.9538 0010173 133.2897 226.9192 15.26963472 82846 Tevel-6 1 50999U 22002R 23194.73703260 .00019946 00000-0 75395-3 0 9996 2 50999 97.4320 261.9465 0010160 133.0420 227.1672 15.26963746 82841 Tevel-1 1 51013U 22002AF 23194.68807611 .00018664 00000-0 72591-3 0 9994 2 51013 97.4319 261.4272 0008913 137.4396 222.7535 15.26041651 82808 Grizu-263a 1 51025U 22002AT 23194.14440079 .00101124 00000-0 17699-2 0 9990 2 51025 97.4452 267.4692 0007832 146.9339 213.2403 15.50224113 83074 NO-116 1 51031U 22002AZ 23193.17145526 .00038054 00000-0 11383-2 0 9993 2 51031 97.4436 263.2718 0010175 139.0605 221.1404 15.34407455 82734 IRIS-A 1 51044U 22002BN 23194.41232506 .00009547 00000-0 44736-3 0 9994 2 51044 97.4337 259.4737 0009340 142.1457 218.0436 15.19872075 82645 Tevel-7 1 51062U 22002CG 23194.69802216 .00018500 00000-0 71950-3 0 9992 2 51062 97.4337 261.5326 0008992 136.4897 223.7052 15.26044202 82805 Tevel-4 1 51063U 22002CH 23194.70505790 .00018376 00000-0 71596-3 0 9999 2 51063 97.4337 261.5209 0009031 136.4127 223.7826 15.25985705 82807 Tevel-2 1 51069U 22002CP 23194.74477343 .00018982 00000-0 73694-3 0 9995 2 51069 97.4323 261.5149 0008943 137.4426 222.7507 15.26097822 82816 DELFI-PQ 1 51074U 22002CU 23194.69094232 .00041503 00000-0 10989-2 0 9999 2 51074 97.4581 267.3785 0010455 157.4313 202.7393 15.38197275 83072 SO-115 1 51080U 22002DA 23194.42379499 .00022799 00000-0 78666-3 0 9991 2 51080 97.4601 265.2388 0011430 162.1237 198.0407 15.29920316 82904 SO-114 1 51081U 22002DB 23193.16605472 .00023979 00000-0 82380-3 0 9994 2 51081 97.4587 263.9526 0011503 165.8662 194.2902 15.30049492 82716 OreSat0 1 52017U 22026K 23193.75841111 .00018909 00000-0 73770-3 0 9997 2 52017 97.5083 196.2393 0021093 0.4672 359.6582 15.25764211 73446 Planetum 1 1 52738U 22057G 23194.27306786 .00013648 00000-0 61843-3 0 9996 2 52738 97.5401 310.2384 0005994 251.1025 108.9560 15.20962553 62620 Foresail-1 1 52766U 22057AL 23194.72865770 .00009312 00000-0 43591-3 0 9993 2 52766 97.5524 311.5910 0011093 232.9185 127.1037 15.19905298 62710 SNUGLITE 2 1 52899U 22065F 23193.65669513 .00001196 00000-0 26201-3 0 9998 2 52899 98.0722 337.7950 0008995 131.7551 228.4419 14.59372229 54576 CTIM 1 52950U 22074G 23194.45169215 .00031424 00000-0 64279-3 0 9993 2 52950 44.9959 212.1986 0013853 31.6754 328.4967 15.45528119 57662 IO-117 1 53106U 22080B 23192.33245448 -.00000003 00000-0 00000+0 0 9990 2 53106 70.1633 311.3291 0008591 181.2568 178.8071 6.42556799 23304 AstroBioCubeSat 1 53107U 22080C 23025.30817895 -.00000003 00000-0 00000-0 0 9995 2 53107 70.1710 9.4734 0013545 210.3158 149.6718 6.42110537 12478 SelfieSat 1 53951U 22057BC 23194.27526163 .00017547 00000-0 75163-3 0 9999 2 53951 97.5448 310.9639 0008080 243.8652 116.1753 15.22814276 62650 FO-118 1 54684U 22167C 23194.70593118 .00010544 00000-0 57366-3 0 9992 2 54684 97.5650 332.1156 0012466 239.6445 120.3555 15.14578707 32690 KILICSAT 1 56181U 23054D 23194.66065897 .00011757 00000-0 49887-3 0 9991 2 56181 97.4021 89.1662 0007632 310.2231 49.8337 15.23229466 14209 SSS-2B 1 56184U 23054G 23194.71783493 .00011798 00000-0 49769-3 0 9993 2 56184 97.4083 89.3159 0008938 309.4118 50.6326 15.23415989 14213 CIRBE 1 56188U 23054L 23194.69403699 .00013510 00000-0 55939-3 0 9991 2 56188 97.4038 89.2892 0007571 303.9220 56.1297 15.24022581 14216 INSPIRE-Sat 7 1 56211U 23054AK 23194.66915197 .00015506 00000-0 60867-3 0 9999 2 56211 97.4058 89.5068 0011932 279.8326 80.1565 15.25744691 14227 RoseyCubesat 1 1 56212U 23054AL 23194.65753644 .00016971 00000-0 65989-3 0 9993 2 56212 97.4068 89.5289 0012213 278.9773 81.0083 15.26038488 14229 ARKSAT 1 1 56311U 98067VC 23194.72449829 .00066223 00000-0 79221-3 0 9993 2 56311 51.6354 193.8157 0002436 128.7231 231.3980 15.60354502 12500 AuroraSat 1 56312U 98067VD 23193.73578248 .00087080 00000-0 98144-3 0 9991 2 56312 51.6348 198.4586 0002830 96.8437 263.2879 15.61787653 12387 Ex-Alta 2 1 56313U 98067VE 23194.72423604 .00065827 00000-0 78634-3 0 9994 2 56313 51.6341 193.8076 0002487 126.7088 233.4134 15.60394285 12520 LightCube 1 56314U 98067VF 23194.38404426 .00074994 00000-0 85591-3 0 9993 2 56314 51.6340 195.2852 0004400 104.9016 255.2465 15.61520458 12505 NEUDOSE 1 56315U 98067VG 23194.72676784 .00044793 00000-0 59425-3 0 9991 2 56315 51.6350 194.5751 0004481 141.9722 218.1587 15.57778518 12499 YukonSat 1 56316U 98067VH 23194.43912138 .00053074 00000-0 66772-3 0 9991 2 56316 51.6342 195.6543 0004266 127.3064 232.8318 15.59116287 12474 SNIPE 4 1 56744U 23072B 23194.75696643 .00005338 00000-0 35382-3 0 9998 2 56744 97.5508 21.1653 0009786 126.4014 233.8118 15.07663632 7437 SNIPE 2 1 56745U 23072C 23194.75262488 .00005780 00000-0 38137-3 0 9997 2 56745 97.5515 21.1763 0009990 129.3676 230.8438 15.07796074 7430 UmKA 1 (RS40S) 1 57172U 23091G 23194.71837186 .00003046 00000-0 22779-3 0 9990 2 57172 97.6634 245.2749 0018014 189.2063 170.8835 15.03402614 2421 /EX
